Location: Bosdarros
(43.2167°N, 0.3667°W)
Time: 07:13:38
(UTC+00:00)

Cosmos 2263 Rocket - Pass Details

Date: 22 April 2021
Orbit: 824 x 848 km, 71.0° (Epoch: 07 May)

Event Time Altitude Azimuth Distance (km) Brightness Sun altitude
Exits shadow 22:16:18 56° 34° (NE) 974 2.5 -29.4°
Drops below altitude 10° 22:20:41 10° 26° (NNE) 2,435 5.0 -29.8°
Sets 22:23:07 0° 26° (NNE) 3,374 5.8 -30.0°
